Retour au catalogue

COSMOS 1365 FUEL CORE

ActifLEO
NORAD 13594·DEBRIS·🇷🇺 Russia

Lancé May 14, 1982 depuis Baikonur Cosmodrome

Loading…

Prochains Passages (prochaines 24 heures)

TLE

FraisSource: Space-Track

Époque: Sep 14, 2026, 11:26 UTC

1 13594U 82043D   26257.47699524 -.00000101  00000-0 -80846-5 0  9992
2 13594  65.0675  73.0167 0063044 308.8424  50.7025 13.93201128258311

Suivez COSMOS 1365 FUEL CORE en temps réel avec AllMySat

Download on the App Store